When you browse on this site, cookies collect data to enhance your experience and personalize the content and advertising you see.
Visit our Privacy Policy to learn more. By continuing to use the site, you agree to this use of cookies and data.
  • In Hungary
  • List of Countries
  • For 7 days
  • Water Temperature
  • Weather Map
  • News
  • Weather Widgets
  • user-avatar
    Login

    Hourly Weather Nalut

    Today, 12 December, Thursday

    Time Temperature Precipitation Wind Pressure Humidity
    00:00 +7°C° 0 mm 5 mps 720 mmHg 48%
    01:00 +7°C° 0 mm 5 mps 720 mmHg 48%
    02:00 +6°C° 0 mm 5 mps 719 mmHg 49%
    03:00 +6°C° 0 mm 5 mps 719 mmHg 49%
    04:00 +6°C° 0 mm 5 mps 719 mmHg 50%
    05:00 +6°C° 0 mm 5 mps 719 mmHg 49%
    06:00 +4°C° 0 mm 6 mps 719 mmHg 49%
    07:00 +4°C° 0 mm 6 mps 720 mmHg 49%
    08:00 +7°C° 0 mm 6 mps 720 mmHg 44%
    09:00 +8°C° 0 mm 6 mps 720 mmHg 38%
    10:00 +10°C° 0 mm 6 mps 720 mmHg 33%
    11:00 +11°C° 0 mm 6 mps 720 mmHg 30%
    12:00 +13°C° 0 mm 6 mps 720 mmHg 27%
    13:00 +15°C° 0 mm 5 mps 719 mmHg 23%
    14:00 +15°C° 0 mm 5 mps 719 mmHg 23%
    15:00 +15°C° 0 mm 4 mps 719 mmHg 24%
    16:00 +16°C° 0 mm 3 mps 719 mmHg 24%
    17:00 +13°C° 0 mm 3 mps 719 mmHg 26%
    18:00 +12°C° 0 mm 3 mps 719 mmHg 28%
    19:00 +11°C° 0 mm 3 mps 719 mmHg 30%
    20:00 +11°C° 0 mm 3 mps 719 mmHg 32%
    21:00 +10°C° 0 mm 3 mps 719 mmHg 34%
    22:00 +9°C° 0 mm 3 mps 719 mmHg 36%
    23:00 +9°C° 0 mm 3 mps 718 mmHg 42%

    Tomorrow, 13 December, Friday

    Time Temperature Precipitation Wind Pressure Humidity
    00:00 +8°C° 0 mm 4 mps 718 mmHg 48%
    01:00 +7°C° 0 mm 4 mps 718 mmHg 54%
    02:00 +7°C° 0 mm 4 mps 718 mmHg 59%
    03:00 +7°C° 0 mm 4 mps 717 mmHg 64%
    04:00 +7°C° 0 mm 5 mps 717 mmHg 68%
    05:00 +7°C° 0 mm 5 mps 717 mmHg 69%
    06:00 +7°C° 0 mm 5 mps 717 mmHg 70%
    07:00 +7°C° 0 mm 5 mps 717 mmHg 71%
    08:00 +8°C° 0 mm 6 mps 717 mmHg 61%
    09:00 +10°C° 0 mm 8 mps 717 mmHg 50%
    10:00 +11°C° 0 mm 9 mps 718 mmHg 40%
    11:00 +12°C° 0 mm 10 mps 717 mmHg 39%
    12:00 +12°C° 0 mm 10 mps 717 mmHg 38%
    13:00 +13°C° 0 mm 10 mps 716 mmHg 36%
    14:00 +13°C° 0 mm 10 mps 716 mmHg 38%
    15:00 +12°C° 0 mm 10 mps 716 mmHg 41%
    16:00 +12°C° 0 mm 10 mps 715 mmHg 43%
    17:00 +12°C° 0 mm 9 mps 716 mmHg 46%
    18:00 +11°C° 0 mm 9 mps 716 mmHg 50%
    19:00 +11°C° 0 mm 8 mps 716 mmHg 53%
    20:00 +11°C° 0 mm 8 mps 716 mmHg 54%
    21:00 +11°C° 0 mm 8 mps 717 mmHg 56%
    22:00 +11°C° 0 mm 8 mps 717 mmHg 57%
    23:00 +10°C° 0 mm 8 mps 717 mmHg 58%

    Day after tomorrow, 14 December, Saturday

    Time Temperature Precipitation Wind Pressure Humidity
    00:00 +10°C° 0 mm 8 mps 717 mmHg 60%
    01:00 +10°C° 0 mm 8 mps 717 mmHg 61%
    02:00 +10°C° 0 mm 7 mps 717 mmHg 63%
    03:00 +10°C° 0 mm 6 mps 717 mmHg 65%
    04:00 +9°C° 0 mm 6 mps 717 mmHg 67%
    05:00 +9°C° 0 mm 6 mps 717 mmHg 70%
    06:00 +9°C° 0 mm 5 mps 718 mmHg 73%
    07:00 +9°C° 0 mm 5 mps 718 mmHg 75%
    08:00 +10°C° 0 mm 5 mps 719 mmHg 68%
    09:00 +13°C° 0 mm 5 mps 720 mmHg 61%
    10:00 +15°C° 0 mm 5 mps 720 mmHg 53%
    11:00 +16°C° 0 mm 6 mps 720 mmHg 49%
    12:00 +17°C° 0 mm 6 mps 720 mmHg 45%
    13:00 +18°C° 0 mm 7 mps 720 mmHg 41%
    14:00 +19°C° 0 mm 6 mps 720 mmHg 41%
    15:00 +19°C° 0 mm 6 mps 720 mmHg 41%
    16:00 +19°C° 0 mm 5 mps 720 mmHg 41%
    17:00 +18°C° 0 mm 4 mps 721 mmHg 45%
    18:00 +17°C° 0 mm 4 mps 721 mmHg 50%
    19:00 +14°C° 0 mm 3 mps 721 mmHg 54%
    20:00 +14°C° 0 mm 3 mps 722 mmHg 56%
    21:00 +14°C° 0 mm 2 mps 722 mmHg 58%
    22:00 +14°C° 0 mm 2 mps 722 mmHg 61%
    23:00 +13°C° 0 mm 2 mps 722 mmHg 62%

    15 December, Sunday

    Time Temperature Precipitation Wind Pressure Humidity
    00:00 +13°C° 0 mm 2 mps 722 mmHg 63%
    01:00 +13°C° 0 mm 1 mps 722 mmHg 65%
    02:00 +12°C° 0 mm 1 mps 722 mmHg 66%
    03:00 +12°C° 0 mm 1 mps 722 mmHg 68%
    04:00 +11°C° 0 mm 1 mps 721 mmHg 70%
    05:00 +11°C° 0 mm 1 mps 722 mmHg 71%
    06:00 +10°C° 0 mm 2 mps 722 mmHg 72%
    07:00 +10°C° 0 mm 2 mps 722 mmHg 73%
    08:00 +13°C° 0 mm 2 mps 723 mmHg 66%
    09:00 +14°C° 0 mm 2 mps 723 mmHg 60%
    10:00 +16°C° 0 mm 2 mps 724 mmHg 53%
    11:00 +17°C° 0 mm 2 mps 724 mmHg 49%
    12:00 +18°C° 0 mm 2 mps 723 mmHg 46%
    13:00 +19°C° 0 mm 2 mps 723 mmHg 42%
    14:00 +20°C° 0 mm 1 mps 723 mmHg 41%
    15:00 +20°C° 0 mm 1 mps 723 mmHg 40%
    16:00 +19°C° 0 mm 0 mps 723 mmHg 39%
    17:00 +19°C° 0 mm 1 mps 723 mmHg 43%
    18:00 +18°C° 0 mm 1 mps 723 mmHg 47%
    19:00 +16°C° 0 mm 2 mps 723 mmHg 51%
    20:00 +15°C° 0 mm 2 mps 723 mmHg 52%
    21:00 +15°C° 0 mm 2 mps 723 mmHg 53%
    22:00 +15°C° 0 mm 2 mps 723 mmHg 54%
    23:00 +13°C° 0 mm 3 mps 723 mmHg 54%

    16 December, Monday

    Time Temperature Precipitation Wind Pressure Humidity
    00:00 +13°C° 0 mm 3 mps 723 mmHg 55%
    01:00 +13°C° 0 mm 3 mps 722 mmHg 55%
    02:00 +12°C° 0 mm 3 mps 722 mmHg 56%
    03:00 +12°C° 0 mm 3 mps 722 mmHg 57%
    04:00 +11°C° 0 mm 4 mps 722 mmHg 58%
    05:00 +11°C° 0 mm 4 mps 722 mmHg 60%
    06:00 +11°C° 0 mm 4 mps 722 mmHg 62%
    07:00 +10°C° 0 mm 4 mps 722 mmHg 64%
    08:00 +12°C° 0 mm 4 mps 723 mmHg 59%
    09:00 +13°C° 0 mm 5 mps 723 mmHg 54%
    10:00 +15°C° 0 mm 5 mps 723 mmHg 50%
    11:00 +16°C° 0 mm 5 mps 723 mmHg 45%
    12:00 +17°C° 0 mm 6 mps 722 mmHg 40%
    13:00 +20°C° 0 mm 6 mps 722 mmHg 35%
    14:00 +20°C° 0 mm 5 mps 721 mmHg 34%
    15:00 +20°C° 0 mm 5 mps 721 mmHg 33%
    16:00 +20°C° 0 mm 4 mps 720 mmHg 32%
    17:00 +19°C° 0 mm 4 mps 720 mmHg 35%
    18:00 +18°C° 0 mm 4 mps 720 mmHg 37%
    19:00 +15°C° 0 mm 4 mps 720 mmHg 40%
    20:00 +15°C° 0 mm 4 mps 720 mmHg 40%
    21:00 +15°C° 0 mm 5 mps 720 mmHg 41%
    22:00 +14°C° 0 mm 5 mps 720 mmHg 41%
    23:00 +14°C° 0 mm 6 mps 720 mmHg 43%

    17 December, Tuesday

    Time Temperature Precipitation Wind Pressure Humidity
    00:00 +14°C° 0 mm 6 mps 720 mmHg 46%
    01:00 +12°C° 0 mm 7 mps 720 mmHg 48%
    02:00 +12°C° 0 mm 7 mps 719 mmHg 51%
    03:00 +11°C° 0 mm 7 mps 719 mmHg 54%
    04:00 +11°C° 0 mm 7 mps 719 mmHg 56%
    05:00 +11°C° 0 mm 7 mps 719 mmHg 56%
    06:00 +11°C° 0 mm 8 mps 719 mmHg 57%
    07:00 +11°C° 0 mm 8 mps 719 mmHg 57%
    08:00 +12°C° 0 mm 8 mps 719 mmHg 52%
    09:00 +13°C° 0 mm 9 mps 720 mmHg 48%
    10:00 +14°C° 0 mm 10 mps 720 mmHg 43%
    11:00 +16°C° 0 mm 10 mps 719 mmHg 40%
    12:00 +17°C° 0 mm 10 mps 719 mmHg 37%
    13:00 +18°C° 0 mm 10 mps 718 mmHg 35%
    14:00 +18°C° 0 mm 10 mps 718 mmHg 34%
    15:00 +19°C° 0 mm 9 mps 718 mmHg 33%
    16:00 +19°C° 0 mm 9 mps 717 mmHg 33%
    17:00 +18°C° 0 mm 9 mps 717 mmHg 36%
    18:00 +17°C° 0 mm 9 mps 717 mmHg 39%
    19:00 +16°C° 0 mm 9 mps 717 mmHg 42%
    20:00 +16°C° 0 mm 9 mps 717 mmHg 44%
    21:00 +14°C° 0 mm 10 mps 717 mmHg 46%
    22:00 +14°C° 0 mm 11 mps 718 mmHg 47%
    23:00 +13°C° 0 mm 11 mps 717 mmHg 47%
    Show more